sat.trackr.live / text

‹ back to catalog

STARLINK-4768

NORAD 53806 · 2022-111AK

PAYLOAD ACTIVE UNKNOWN

§ Identity

Operator
Country
US
Launch date
2022-09-11
Launch site
AFETR
Launch vehicle
Mass (kg)
RCS (m²)

Purposes: comms

External: N2YO · Heavens-Above · Gunter

§ Orbital elements

Epoch: 2026-05-25T00:42:44.015040Z

Period
95.44 min
Inclination
53.2142°
Eccentricity
0.0001642
Mean motion
15.08819059 rev/d
Perigee alt
538.7 km
Apogee alt
540.9 km
Semi-major
6,917.9 km
B*
1.5162e-4
RAAN
266.2599°
Arg perigee
88.2371°
Mean anomaly
271.8809°
Rev number
20,555

§ Raw data

STARLINK-47681 53806U 22111AK  26145.02967610  .00002125  00000+0  15162-3 0  99952 53806  53.2142 266.2599 0001642  88.2371 271.8809 15.08819059205550

JSON: /api/v1/satellites/53806 · /tle

For live sub-satellite position, see the globe view (requires WebGL).

§ Visibility from observer

Set your observer location to see the next 7 days of passes ≥ 10°. The values pass through the URL so the page stays shareable.

No JS? Fill the form by hand. The geolocation button needs JavaScript.